EHI
4 4 3 4 4 3 3 3 3 3 4 4 2 1 1 2 2 1 0 0 0 0 0 1 3 4 5 5 6 6 5 4 3 2 1 0 0 0 0 0 0 0 0
4 3 3 3 3 2 2 3 3 3 4 4 3 1 0 2 3 2 2 1 0 0 0 1 2 3 4 4 4 5 5 4 3 1 0 0 0 0 0 0 0 0 0
3 4 4 3 3 2 2 3 3 4 4 4 2 1 1 2 3 4 4 2 1 0 0 1 2 3 4 3 3 4 4 3 2 1 0 0 0 0 0 0 0 0 0
4 4 4 4 3 2 2 2 3 4 4 3 3 2 3 3 4 4 4 3 1 0 0 2 3 4 4 3 2 3 3 2 1 0 0 0 0 0 0 0 0 0 0
5 5 5 5 4 3 1 1 2 3 3 3 3 3 3 3 3 3 4 3 1 0 0 1 2 3 3 3 2 3 3 2 1 1 0 0 0 0 0 0 0 0 0
5 6 7 7 6 4 2 1 1 1 1 2 3 4 3 3 1 1 2 2 2 0 0 0 1 2 2 2 1 1 2 2 3 3 2 1 1 1 1 0 0 0 0
6 7 8 8 8 7 4 3 2 1 1 2 3 4 4 2 1 0 1 2 1 0 0 0 1 2 3 3 3 2 2 2 2 4 4 3 2 2 2 1 1 1 0
7 7 8 8 9 8 6 4 3 3 3 3 3 4 3 2 1 0 1 1 0 0 0 0 1 2 3 4 4 4 4 3 2 2 3 3 3 2 2 2 2 2 1
7 6 7 8 9 8 7 6 5 4 4 3 2 3 3 3 1 0 1 1 0 0 0 0 1 1 1 1 2 3 4 4 3 2 1 2 1 1 1 2 3 3 3
7 6 6 7 9 9 8 8 7 5 3 2 1 2 3 3 2 0 0 1 1 1 1 0 0 0 0 0 1 2 3 4 4 3 2 1 2 1 1 1 2 3 4
6 7 7 7 8 9 9 9 9 8 5 2 1 1 2 2 1 1 0 1 2 3 3 2 0 0 0 0 0 1 2 2 3 3 2 3 4 4 3 2 2 2 3
6 6 6 5 6 9 9 9 10 10 9 5 3 2 2 2 2 1 0 0 1 3 4 3 1 0 0 0 0 0 0 0 1 1 1 3 5 6 5 3 3 2 2
6 6 5 5 6 9 10 9 11 13 12 10 7 6 6 5 4 2 1 0 0 2 3 2 1 0 0 0 0 0 0 0 0 0 0 1 3 4 4 4 4 4 3
7 6 6 6 7 10 10 11 13 14 14 12 11 10 10 8 6 3 1 0 0 0 1 1 0 0 0 0 0 0 0 0 0 0 0 0 1 1 1 2 3 4 3
6 6 7 7 8 9 11 11 12 11 11 10 10 10 10 8 6 3 1 0 0 0 0 0 0 0 0 0 0 0 0 0 0 0 0 0 0 0 0 1 3 3 2
4 5 7 8 9 10 11 10 8 6 5 5 6 6 6 5 4 1 0 0 0 0 0 0 0 0 0 0 0 0 0 0 0 0 0 0 0 0 1 2 3 2 1
4 6 8 9 11 12 12 10 8 6 3 2 2 2 2 1 1 0 0 0 0 0 0 0 0 1 1 1 1 0 0 0 0 0 0 0 0 1 2 3 2 1 0
4 5 6 8 10 12 12 12 11 9 7 4 2 0 0 0 0 0 0 0 0 0 0 0 1 2 2 2 2 1 0 0 0 0 0 0 1 2 2 2 1 0 0
4 3 3 5 8 11 12 12 12 12 10 7 3 1 0 0 0 0 0 0 0 0 0 0 1 2 3 3 3 2 0 0 0 0 0 0 1 2 1 1 0 0 0
3 1 1 3 5 8 11 11 12 12 12 9 6 3 1 0 0 0 0 0 0 0 0 0 0 1 3 3 3 1 0 0 0 0 0 0 1 1 0 0 0 0 0
1 0 0 1 3 6 8 10 11 12 12 11 9 5 2 0 0 0 0 0 0 0 0 0 0 1 2 3 3 1 0 0 0 0 0 0 0 0 0 0 0 0 0
0 0 0 1 3 5 6 7 9 10 12 12 10 5 2 0 0 0 0 0 0 0 0 0 0 1 2 3 2 1 0 0 0 0 0 0 0 0 0 0 0 0 0
0 0 0 1 3 5 6 7 7 9 10 11 9 6 2 0 0 0 0 0 0 0 0 0 0 1 1 1 1 1 0 0 0 0 0 0 0 0 0 0 0 0 0
0 0 1 2 3 5 6 6 7 8 9 9 9 7 3 1 0 0 0 0 0 0 0 0 0 0 0 0 0 0 0 0 0 0 0 0 0 0 0 0 0 0 0
0 0 2 3 3 4 6 6 7 8 9 8 8 6 4 2 1 0 0 0 0 0 0 0 0 0 0 0 0 0 0 0 0 0 0 0 0 0 0 0 0 0 0
0 0 1 3 3 4 6 6 7 8 9 8 7 6 4 2 1 0 0 0 0 0 0 0 0 0 0 0 0 0 0 0 0 0 0 0 0 0 0 0 0 0 0
Wind_Speed
4 3 3 3 3 3 2 3 3 2 2 3 3 2 2 2 2 2 2 2 3 2 2 2 2 2 2 2 2 2 2 2 2 1 1 1 1 1 1 1 1 1 1
5 4 4 3 3 3 3 3 2 2 2 3 3 2 2 2 2 2 3 3 3 3 3 3 3 2 2 2 2 2 2 3 3 2 1 1 1 1 1 1 1 1 1
4 4 4 4 4 4 3 3 3 3 2 2 2 3 3 2 2 2 3 2 3 3 3 4 4 3 3 2 2 3 2 2 2 3 2 1 1 1 1 1 1 0 1
4 4 4 4 4 4 3 3 3 3 3 2 2 3 3 3 3 3 3 2 2 2 3 3 4 4 4 4 3 3 3 3 3 2 2 1 1 1 2 2 1 1 1
5 4 4 3 2 2 2 3 3 3 3 3 2 2 2 3 3 3 3 3 2 2 2 2 3 4 5 4 4 4 4 3 3 3 2 2 2 2 3 2 2 1 1
5 4 3 3 3 2 2 2 2 2 2 2 2 3 3 3 4 5 4 3 3 3 2 2 2 3 4 5 5 6 6 5 5 4 3 4 4 4 3 3 3 2 2
4 4 3 3 3 3 2 2 2 3 3 3 3 3 4 4 5 5 5 3 3 3 3 3 2 2 3 3 3 4 5 6 7 6 6 6 5 6 6 5 5 4 3
3 3 3 3 3 2 2 3 3 2 3 3 4 4 3 4 5 5 5 3 3 3 3 4 3 3 3 3 3 3 3 4 6 5 6 6 5 5 7 6 5 3 1
3 3 3 4 3 3 3 3 3 2 2 2 2 3 4 4 5 5 4 3 3 3 3 3 4 4 4 4 4 4 3 3 3 5 5 4 5 5 5 4 4 3 2
4 3 3 4 4 4 4 3 2 2 3 3 3 3 4 5 5 6 6 3 3 3 3 3 5 5 5 6 5 5 5 4 3 2 2 3 4 5 7 6 5 4 2
3 2 2 3 4 4 3 2 2 2 2 2 3 3 4 5 5 6 7 4 4 4 3 3 4 5 6 7 6 6 7 5 3 3 3 2 2 3 4 4 5 5 4
3 2 2 2 3 2 2 2 2 2 3 3 3 3 3 3 4 5 7 7 6 5 4 3 4 6 6 6 5 5 6 4 3 3 3 3 3 3 3 4 5 5 5
3 3 3 3 3 3 3 3 2 3 3 3 3 4 4 3 3 5 6 7 7 5 4 5 5 6 6 5 6 6 5 4 3 4 4 4 3 3 3 2 3 3 3
4 3 3 3 3 2 2 3 3 3 4 4 4 4 4 3 3 2 2 3 5 5 4 4 4 5 4 4 4 4 4 4 4 4 4 3 3 3 3 3 3 2 2
2 3 2 2 3 2 3 3 4 5 5 6 5 5 5 5 5 5 4 3 3 3 2 1 2 2 2 2 3 3 4 4 4 4 4 4 3 3 3 3 3 3 3
2 2 2 2 2 3 3 3 4 5 6 7 8 7 6 7 6 6 7 6 5 5 4 3 4 4 4 4 4 4 4 4 5 4 4 4 4 4 4 3 3 4 4
3 3 2 3 3 3 3 3 4 4 4 5 6 7 7 6 6 7 7 5 5 6 4 4 4 5 5 5 5 5 5 4 4 4 5 5 5 5 4 4 4 4 4
3 3 3 3 3 3 3 4 3 3 4 4 4 5 6 5 6 6 5 3 2 4 4 5 5 5 5 5 5 5 4 4 4 4 4 4 4 4 4 5 5 5 5
3 2 2 2 3 3 3 3 3 4 4 3 3 3 3 3 3 4 5 4 4 5 5 5 5 5 5 4 4 4 5 4 4 4 4 5 4 4 5 5 5 6 5
2 4 3 2 3 3 3 3 3 4 4 4 4 3 1 1 2 2 3 4 4 5 5 5 5 5 5 4 4 4 4 4 5 5 5 5 4 5 5 6 5 5 5
2 2 3 2 2 3 3 3 3 4 4 4 4 4 4 4 4 4 4 5 5 5 5 5 5 5 5 4 4 5 5 5 5 5 5 5 5 5 5 5 6 6 5
1 2 2 2 2 2 3 3 3 3 4 4 3 3 4 4 4 4 4 5 5 5 5 5 5 5 5 5 5 5 5 5 5 5 5 5 5 5 5 5 5 5 6
1 2 2 2 2 3 3 3 3 3 3 3 3 2 3 4 4 4 4 4 4 4 4 4 4 4 4 4 4 5 5 5 5 5 5 5 5 5 5 6 7 7 7
1 2 2 2 2 2 2 3 2 2 2 3 2 2 2 3 3 4 4 3 3 3 3 3 4 5 5 4 3 4 4 4 5 5 7 6 6 5 5 6 7 8 7
1 2 2 2 2 2 3 3 2 2 2 2 2 2 2 2 2 3 3 2 2 3 3 3 2 3 4 5 5 4 4 4 5 4 5 6 7 7 6 7 6 7 7
2 2 2 2 2 2 2 2 2 2 2 2 2 2 2 2 2 2 2 2 2 2 2 2 3 3 3 3 4 4 3 3 4 5 5 5 6 6 6 6 7 6 7
Wind_Direction
184 187 186 189 189 185 190 205 208 205 194 199 202 193 191 188 182 173 186 183 186 203 206 198 214 197 193 193 178 176 177 171 186 231 210 168 160 162 116 118 116 107 109
186 179 186 190 182 189 205 213 203 204 206 203 197 192 200 201 193 192 203 198 195 206 210 205 218 200 195 195 186 189 192 189 183 200 210 173 179 178 150 142 121 114 122
174 176 180 186 190 203 212 209 201 203 208 202 191 198 206 204 200 207 203 202 208 216 215 214 218 198 203 197 192 195 195 188 182 180 199 197 188 159 136 129 132 112 127
169 176 185 197 200 207 208 203 201 196 197 207 206 209 208 204 210 213 203 204 216 227 225 221 218 208 204 195 195 191 178 163 154 162 171 185 195 170 166 178 192 204 208
169 180 193 192 189 196 203 206 199 196 205 205 204 219 218 211 218 212 209 207 208 223 230 228 222 208 198 195 192 184 171 166 165 172 183 195 203 189 197 196 202 214 227
172 188 191 179 179 190 205 208 205 213 215 204 211 215 228 239 231 218 208 208 206 207 221 234 228 208 198 198 195 188 180 179 186 190 203 210 218 211 199 192 185 190 224
178 184 186 186 188 200 207 200 219 223 218 219 224 220 230 243 235 224 214 205 211 215 214 214 221 214 190 191 187 191 205 208 197 195 206 217 212 205 191 192 196 202 214
184 191 189 187 195 203 203 218 231 227 223 229 232 231 231 244 233 221 208 204 212 221 222 214 213 216 209 191 191 201 220 229 220 212 218 222 216 204 195 195 194 190 198
190 199 199 191 194 202 217 231 234 229 238 239 238 233 236 251 238 219 197 194 210 227 228 218 209 212 208 186 185 203 224 245 236 219 223 221 206 190 178 166 172 183 214
204 209 202 192 195 209 221 225 224 220 236 240 246 240 237 244 236 217 195 198 214 230 232 229 218 215 208 194 197 203 218 232 223 215 220 231 218 195 182 189 191 193 203
194 187 199 210 215 218 219 218 224 229 232 238 251 260 252 250 246 223 201 199 210 218 226 231 232 216 211 208 207 212 216 212 207 206 213 216 210 203 197 200 200 199 202
170 165 209 233 235 229 215 228 221 218 227 239 249 268 268 259 247 233 216 209 208 214 227 230 230 219 215 212 210 216 210 196 197 200 210 216 214 213 210 208 209 213 220
176 183 205 230 229 222 215 227 227 220 226 241 243 254 267 270 261 239 225 215 215 222 232 227 226 220 215 213 215 212 203 199 198 207 220 227 223 216 204 204 211 215 227
191 203 205 216 233 227 218 214 219 228 233 241 244 249 258 261 259 249 238 224 219 226 239 233 221 211 211 217 213 213 211 209 207 217 221 221 205 201 206 201 205 204 219
218 221 221 223 227 240 240 229 226 231 223 228 238 233 235 248 247 231 224 236 231 220 197 201 211 214 227 232 229 221 214 210 214 217 216 214 211 212 215 205 198 195 215
223 233 230 234 234 236 246 274 262 251 253 245 238 233 238 239 239 230 232 236 228 196 179 205 218 223 226 226 227 226 220 219 219 216 216 217 215 215 214 207 204 211 224
215 225 231 238 241 239 239 245 274 290 279 264 253 241 236 238 235 228 226 224 210 182 200 220 224 225 227 226 225 222 224 223 218 216 219 219 216 216 215 215 214 223 233
223 231 233 239 247 244 242 244 245 255 274 282 273 255 250 244 238 231 214 186 209 205 222 224 228 229 229 227 226 226 224 219 214 217 217 217 215 215 218 220 219 221 227
231 236 236 242 250 250 244 243 246 251 257 265 277 276 253 242 244 229 192 210 221 225 229 230 229 229 230 230 230 227 221 218 217 217 219 218 217 218 222 223 223 221 222
239 245 248 241 245 249 248 247 250 251 255 255 255 254 222 205 238 235 225 229 228 230 231 234 233 229 227 226 227 227 228 223 220 222 222 218 215 216 222 224 223 224 227
262 255 249 248 250 253 252 251 253 251 252 256 254 245 216 225 238 237 236 236 236 236 233 232 230 228 229 224 223 225 227 228 224 225 223 220 218 219 223 224 223 225 229
240 245 241 240 252 258 265 261 257 255 257 262 267 253 218 229 241 243 243 245 243 239 235 233 230 226 224 224 222 224 229 230 224 222 224 225 223 224 225 225 227 227 227
219 237 251 250 250 258 267 273 269 262 258 256 251 247 235 241 245 247 251 252 251 247 239 230 232 234 228 224 224 224 226 228 224 218 221 226 226 225 224 225 227 229 230
249 242 247 256 261 262 268 276 277 273 266 259 249 237 236 239 246 256 261 261 258 254 249 239 234 235 235 231 229 232 234 232 223 216 215 220 225 226 224 225 227 229 231
273 267 260 258 260 262 268 270 272 275 270 266 263 256 252 249 258 271 272 267 262 259 259 254 249 243 242 244 246 244 237 225 225 226 219 218 224 225 225 227 228 229 229
278 278 272 262 258 258 262 267 273 277 272 269 268 267 267 268 273 279 286 283 278 279 279 272 270 269 267 258 260 260 238 223 222 224 224 223 225 229 229 232 230 228 228